Miscellaneous Local Product
Issued by NWS Hastings, NE

Home | Current Version | Previous Version | Text Only | Print | Product List | Glossary Off
Versions: 1 2 3 4 5 6 7 8 9 10 11 12 13 14 15 16 17 18 19 20 21 22 23 24 25 26 27 28 29 30 31 32 33 34 35 36 37 38 39 40 41 42 43 44 45 46 47 48 49 50

267
AXUS43 KGID 212002
MISGRI

GID CWA HOURLY WEATHER ROUNDUP
NATIONAL WEATHER SERVICE HASTINGS NE
300 PM CDT TUE MAR 21 2017

NOTE: "FAIR" INDICATES FEW OR NO CLOUDS BELOW 12,000 FEET WITH NO
SIGNIFICANT WEATHER AND/OR OBSTRUCTIONS TO VISIBILITY.

...SOUTH CENTRAL NEBRASKA...

CITY           SKY/WX    TMP DP  RH WIND       PRES   REMARKS
GRAND ISLAND   CLOUDY    44  34  67 NE17      30.36F
HASTINGS       MOSUNNY   50  34  54 E18       30.33F
KEARNEY        MOSUNNY   48  30  49 NE16G25   30.33F
ORD            CLOUDY    40  31  70 NE12      30.37F WCI  33
YORK           CLOUDY    45  34  65 NE16      30.36F
AURORA         CLOUDY    45  33  62 NE20      30.35F
LEXINGTON      SUNNY     52  32  46 E20G25    30.30F
HOLDREGE       SUNNY     53  29  39 NE15G26   30.30F
HEBRON         SUNNY     55  31  41 E17G25    30.30F

...NEBRASKA PANHANDLE...

CITY           SKY/WX    TMP DP  RH WIND       PRES   REMARKS
CHADRON        CLOUDY    48  37  65 E16G25    30.22F
ALLIANCE       PTSUNNY   53  29  39 SE16G26   30.18F
SCOTTSBLUFF    SUNNY     57  33  40 SE20      30.14F
SIDNEY         MOSUNNY   54  31  41 SE22      30.17F

...WESTERN AND NORTH CENTRAL NEBRASKA...

CITY           SKY/WX    TMP DP  RH WIND       PRES   REMARKS
VALENTINE      CLOUDY    31  28  89 E9        30.39F WCI  23
AINSWORTH      CLOUDY    32  30  92 E9        30.38F WCI  24
ONEILL         CLOUDY    34  31  91 NE6       30.40F WCI  29
BROKEN BOW     CLOUDY    39  32  76 NE15      30.34F WCI  31
IMPERIAL       MOSUNNY   56  25  30 E13G25    30.23F
NORTH PLATTE   SUNNY     54  28  36 E16G23    30.28F
MCCOOK         SUNNY     56  24  29 E20G26    30.26F

...EASTERN NEBRASKA...

CITY           SKY/WX    TMP DP  RH WIND       PRES   REMARKS
NORFOLK        CLOUDY    38  30  73 NE12      30.40S WCI  30
SO SIOUX CITY  CLOUDY    43  23  45 N13       30.41F
TEKAMAH        CLOUDY    40  33  76 N15       30.40F WCI  32
COLUMBUS       CLOUDY    41  32  70 N13G18    30.40F
ALBION         CLOUDY    40  31  70 NE12      30.39F WCI  32
OMAHA EPPLEY   CLOUDY    45  33  63 N12       30.37S
OFFUTT AFB     MOSUNNY   48  33  56 N10       30.36F
MILLARD        PTSUNNY   47  35  65 N9        30.37F
LINCOLN        CLOUDY    47  34  60 NE20G25   30.37F
NEBRASKA CITY  MOSUNNY   49  32  51 NE21      30.33F
BEATRICE       CLOUDY    50  37  59 NE16G22   30.32F
FALLS CITY     CLOUDY    55  33  43 NE15G25   30.28F

...NORTHERN KANSAS...

CITY           SKY/WX    TMP DP  RH WIND       PRES   REMARKS
GOODLAND       SUNNY     60  32  34 E13       30.21F
HILL CITY      SUNNY     59  26  28 E18G28    30.26F
NORTON         MOCLDY    57  18  21 NE17G25   30.26F
PHILLIPSBURG   SUNNY     57  25  28 NE16G25   30.27F
HAYS             N/A     59  31  34 NE20G26   30.22F
RUSSELL        CLOUDY    59  30  33 E23G31    30.20F
CONCORDIA      SUNNY     57  24  28 NE22G30   30.25F
SALINA         PTSUNNY   63  29  27 NE18G31   30.20F
TOPEKA         PTSUNNY   62  30  29 E23G30    30.20F



USA.gov is the U.S. government's official web portal to all federal, state and local government web resources and services.